Location: Black Swamp Observatory
(41.3920°N, 84.1250°W)
Time: 07:25:50
(UTC-05:00)

Amateur Radio Satellites - All Passes

Search period start: 07 December 2016 06:55
Search period end: 08 December 2016 06:55
Location: Black Swamp Observatory, 41.3920°N, 84.1250°W

Satellite Date Start Highest point End Downlink Frequencies (MHz)
Time Altitude Azimuth
AIST 1 07 Dec 07:02:23 07:06:44 56° 80° (E) 07:11:03
CUTE-I 07 Dec 07:03:15 07:08:37 82° 104° (ESE) 07:13:55 437.470
BRITE-PL 07 Dec 07:04:08 07:08:31 25° 294° (WNW) 07:13:02 437.365/2234.400
BEESAT 3 07 Dec 07:05:22 07:06:41 11° 321° (NW) 07:08:02 437.485
HORYU 2 07 Dec 07:07:49 07:11:18 23° 294° (WNW) 07:14:46 437.375
YUBILEINY 07 Dec 07:18:22 07:27:02 64° 268° (W) 07:35:42 435.215
LilacSat-2 07 Dec 07:21:24 07:24:58 41° 287° (WNW) 07:28:30 437.200
NOAA 18 07 Dec 07:22:12 07:27:46 74° 103° (ESE) 07:33:16 137.9125
NOAA 15 07 Dec 07:22:21 07:27:33 62° 288° (WNW) 07:32:46 137.62
RS-15 07 Dec 07:22:54 07:34:14 60° 113° (ESE) 07:46:06 29.354- 29.394
Cubesat XI-IV 07 Dec 07:29:43 07:34:58 60° 288° (WNW) 07:40:11 437.490
CUTE 1.7 + AOD 2 07 Dec 07:36:06 07:39:24 22° 94° (E) 07:42:41 437.475
BEESAT 2 07 Dec 07:36:53 07:38:23 12° 321° (NW) 07:39:53 435.950
HO-68 07 Dec 07:40:07 07:46:34 34° 96° (E) 07:52:56 435.675
Cosmos 2504 07 Dec 07:41:19 07:50:10 86° 263° (W) 07:58:27 435.465 / 435.565
Cosmos 2491 07 Dec 07:45:51 07:54:39 80° 278° (W) 08:03:28 435.465 / 435.565
CINEMA 3 07 Dec 07:48:28 07:53:10 53° 99° (E) 07:57:38 145.822/145.860
CANX-2 07 Dec 07:53:50 07:57:50 40° 98° (E) 08:01:48 2200.000
AAUSAT CUBESAT 2 07 Dec 07:55:14 07:56:50 12° 90° (E) 07:58:26 437.432
CUBEBUG 2 07 Dec 07:59:33 08:02:17 16° 91° (E) 08:04:56 437.445
PRISM 07 Dec 08:05:36 08:08:45 22° 67° (ENE) 08:11:55 437.425
GOMX 1 07 Dec 08:13:27 08:16:11 14° 300° (WNW) 08:18:56 467.674
STRAND 1 07 Dec 08:14:58 08:18:56 22° 266° (W) 08:22:54 437.568
DOVE 4 07 Dec 08:16:35 08:20:48 25° 295° (WNW) 08:24:57 437.250
SEEDS 07 Dec 08:16:42 08:20:41 42° 98° (E) 08:24:40 437.485
COMPASS 1 07 Dec 08:24:53 08:28:41 34° 97° (E) 08:32:30 437.405
AIST 2 07 Dec 08:33:44 08:37:50 77° 303° (WNW) 08:42:00 435.215
UWE-3 07 Dec 08:38:39 08:42:19 27° 95° (E) 08:45:54 435.000/436.395/437.385
AIST 1 07 Dec 08:41:58 08:43:47 12° 276° (W) 08:45:35
CUTE-I 07 Dec 08:45:14 08:47:56 14° 301° (WNW) 08:50:38 437.470
UNISAT 6 07 Dec 09:00:30 09:04:05 22° 66° (ENE) 09:07:39 437.425
NOAA 18 07 Dec 09:04:24 09:07:46 17° 301° (WNW) 09:11:07 137.9125
CUSAT 1 07 Dec 09:10:36 09:12:56 20° 96° (E) 09:15:02 437.405
CUTE 1.7 + AOD 2 07 Dec 09:11:32 09:15:15 31° 290° (WNW) 09:18:58 437.475
ZACube-1 07 Dec 09:16:36 09:20:38 43° 98° (E) 09:24:35 437.345
YUBILEINY 07 Dec 09:20:22 09:21:55 11° 288° (WNW) 09:23:28 435.215
FUNcube-1 07 Dec 09:23:31 09:27:36 47° 99° (E) 09:31:36 145.935
CINEMA 3 07 Dec 09:26:44 09:29:49 17° 297° (WNW) 09:32:48 145.822/145.860
HO-68 07 Dec 09:27:35 09:34:24 48° 294° (WNW) 09:41:12 435.675
AAUSAT CUBESAT 2 07 Dec 09:28:34 09:32:38 55° 286° (WNW) 09:36:41 437.432
TIGRISAT 07 Dec 09:29:09 09:33:31 39° 71° (ENE) 09:37:50 435.000
CANX-2 07 Dec 09:30:33 09:33:22 18° 294° (WNW) 09:36:12 2200.000
ANTELSAT 07 Dec 09:30:53 09:35:18 43° 72° (ENE) 09:39:43 437.575/2403.000
CUBEBUG 2 07 Dec 09:34:59 09:39:09 43° 288° (WNW) 09:43:10 437.445
RS-15 07 Dec 09:35:45 09:47:08 48° 317° (NW) 09:59:00 29.354- 29.394
Cosmos 2504 07 Dec 09:37:05 09:42:05 17° 285° (WNW) 09:46:57 435.465 / 435.565
PRISM 07 Dec 09:40:19 09:43:53 29° 263° (W) 09:47:29 437.425
Cosmos 2491 07 Dec 09:47:51 09:53:01 17° 300° (WNW) 09:58:13 435.465 / 435.565
Oscar 11 07 Dec 09:52:20 09:56:39 82° 284° (WNW) 10:00:56 145.826/435.025
SEEDS 07 Dec 09:53:21 09:56:03 17° 294° (WNW) 09:58:44 437.485
COMPASS 1 07 Dec 10:00:58 10:04:00 20° 293° (WNW) 10:07:02 437.405
GONETS M04 07 Dec 10:02:42 10:05:24 12° 55° (NE) 10:08:07
POPSAT HIP 1 07 Dec 10:05:39 10:06:51 11° 62° (ENE) 10:08:04 437.405
AO-85 07 Dec 10:07:20 10:10:36 23° 46° (NE) 10:13:46 145.980
DANDE 07 Dec 10:07:31 10:11:36 33° 97° (E) 10:14:49 436.750
UWE-3 07 Dec 10:15:09 10:18:42 25° 292° (WNW) 10:22:08 435.000/436.395/437.385
DELFI C3 07 Dec 10:15:40 10:19:38 66° 101° (E) 10:23:36 145.870
AIST 2 07 Dec 10:15:41 10:17:02 11° 323° (NW) 10:18:23 435.215
HUMSAT D 07 Dec 10:32:48 10:36:48 51° 100° (E) 10:40:44 437.325/437.525
UNISAT 6 07 Dec 10:36:09 10:40:32 39° 262° (W) 10:44:54 437.425
Cosmos 2499 07 Dec 10:37:53 10:44:15 22° 63° (ENE) 10:50:18 435.465 / 435.565
JAS-2 07 Dec 10:38:44 10:44:50 49° 71° (ENE) 10:50:19 435.910
ZACube-1 07 Dec 10:53:55 10:56:34 16° 295° (WNW) 10:59:10 437.345
CUSAT 1 07 Dec 10:54:09 10:54:45 10° 286° (WNW) 10:55:20 437.405
NANOSAT C BR1 07 Dec 10:56:12 11:00:06 36° 71° (ENE) 11:04:01 145.865
FUNcube-1 07 Dec 11:01:02 11:03:26 15° 296° (WNW) 11:05:47 145.935
QB50P2 07 Dec 11:03:09 11:07:17 49° 73° (ENE) 11:11:26 145.880/145.840
POLYITAN 1 07 Dec 11:03:40 11:07:46 47° 73° (ENE) 11:11:55 437.675
TIGRISAT 07 Dec 11:06:45 11:10:18 21° 267° (W) 11:13:50 435.000
ANTELSAT 07 Dec 11:08:50 11:12:11 19° 267° (W) 11:15:31 437.575/2403.000
PCSat 07 Dec 11:11:24 11:16:25 41° 112° (ESE) 11:21:30 145.827
QB50P1 07 Dec 11:16:06 11:20:20 65° 74° (ENE) 11:24:36 145.935-145.965
DUCHIFAT 1 07 Dec 11:17:22 11:21:32 57° 74° (ENE) 11:25:44 145.980
POPSAT HIP 1 07 Dec 11:37:45 11:42:01 73° 257° (WSW) 11:46:19 437.405
AO-85 07 Dec 11:47:31 11:51:02 31° 245° (WSW) 11:54:28 145.980
DANDE 07 Dec 11:51:47 11:54:10 15° 284° (WNW) 11:56:16 436.750
DELFI C3 07 Dec 11:53:06 11:53:53 10° 297° (WNW) 11:54:42 145.870
RS-15 07 Dec 11:54:27 12:03:50 24° 350° (N) 12:13:20 29.354- 29.394
GONETS M04 07 Dec 11:55:43 12:04:20 61° 78° (ENE) 12:12:57
ESTCUBE 1 07 Dec 12:08:17 12:12:49 80° 103° (ESE) 12:17:21 437.505/2401.250
BUGSAT 1 07 Dec 12:08:27 12:12:41 82° 74° (ENE) 12:16:58 437.445
AISAT 07 Dec 12:09:06 12:13:13 34° 98° (E) 12:17:16 437.250
HUMSAT D 07 Dec 12:09:57 12:11:58 13° 296° (WNW) 12:13:58 437.325/437.525
JAS-2 07 Dec 12:24:54 12:30:03 25° 264° (W) 12:34:48 435.910
Cosmos 2499 07 Dec 12:29:50 12:38:27 79° 265° (W) 12:46:23 435.465 / 435.565
CUBEBUG 1 07 Dec 12:31:08 12:35:36 87° 98° (E) 12:40:03 437.445
NANOSAT C BR1 07 Dec 12:32:49 12:35:55 19° 267° (W) 12:39:02 145.865
50 SAT 07 Dec 12:38:47 12:42:19 59° 101° (E) 12:45:50 437.505
QB50P2 07 Dec 12:41:01 12:43:21 14° 269° (W) 12:45:40 145.880/145.840
POLYITAN 1 07 Dec 12:41:20 12:43:49 15° 268° (W) 12:46:18 437.675
VELOX 1 07 Dec 12:45:39 12:50:08 82° 103° (ESE) 12:54:36 145.980
Oscar 19 07 Dec 12:49:18 12:54:16 52° 71° (ENE) 12:59:16 437.125/150
DX 1 07 Dec 12:54:13 12:58:32 52° 100° (E) 13:02:48 434.975-435.025
PCSat 07 Dec 12:55:10 12:59:55 30° 310° (NW) 13:04:42 145.827
QB50P1 07 Dec 12:55:27 12:56:31 11° 270° (W) 12:57:35 145.935-145.965
DUCHIFAT 1 07 Dec 12:55:48 12:57:34 12° 270° (W) 12:59:19 145.980
Gurwin Techsat 1B 07 Dec 12:57:21 13:02:03 33° 67° (ENE) 13:06:47 435.225
UKube-1 07 Dec 12:58:33 13:02:42 43° 99° (E) 13:06:49 .
SPROUT 07 Dec 13:08:04 13:12:24 83° 282° (WNW) 13:16:40 437.525
ITAMSAT 1 07 Dec 13:23:42 13:26:19 14° 59° (ENE) 13:28:58 435.822/435.867
BEESAT 3 07 Dec 13:41:25 13:45:20 53° 54° (NE) 13:49:13 437.485
AISAT 07 Dec 13:45:57 13:49:28 23° 294° (WNW) 13:52:58 437.250
AO-7 07 Dec 13:47:03 13:53:47 29° 55° (NE) 14:00:32 29.400- 29.500
ESTCUBE 1 07 Dec 13:47:40 13:48:57 11° 299° (WNW) 13:50:13 437.505/2401.250
GONETS M04 07 Dec 13:53:27 14:00:32 29° 277° (W) 14:07:38
ITUPSAT 1 07 Dec 13:59:45 14:00:34 10° 89° (E) 14:01:23 437.325
RS-15 07 Dec 14:11:29 14:21:58 30° 25° (NNE) 14:32:16 29.354- 29.394
BEESAT 2 07 Dec 14:13:44 14:17:43 54° 54° (NE) 14:21:39 435.950
TISAT 1 07 Dec 14:24:38 14:28:52 73° 285° (WNW) 14:33:02 437.305
VELOX 1 07 Dec 14:24:52 14:25:55 11° 300° (WNW) 14:26:58 145.980
Cosmos 2499 07 Dec 14:25:53 14:29:57 14° 286° (WNW) 14:33:54 435.465 / 435.565
Oscar 19 07 Dec 14:30:21 14:33:53 19° 268° (W) 14:37:26 437.125/150
DX 1 07 Dec 14:31:41 14:34:16 16° 297° (WNW) 14:36:51 434.975-435.025
UKube-1 07 Dec 14:35:28 14:38:25 18° 295° (WNW) 14:41:20 .
Gurwin Techsat 1B 07 Dec 14:37:16 14:41:57 32° 264° (W) 14:46:42 435.225
ITAMSAT 1 07 Dec 14:59:53 15:05:06 80° 257° (WSW) 15:10:21 435.822/435.867
O/OREOS (USA 219) 07 Dec 15:00:20 15:02:30 13° 98° (E) 15:04:39 437.305
SWISSCUBE 07 Dec 15:01:37 15:06:18 55° 101° (E) 15:10:57 437.505
BEESAT 07 Dec 15:05:30 15:10:10 54° 101° (E) 15:14:49 436.000
AUBIESAT-1 07 Dec 15:11:22 15:15:47 46° 103° (ESE) 15:19:59 437.475
AIST 2 07 Dec 15:18:45 15:19:50 11° 37° (NE) 15:20:54 435.215
BEESAT 3 07 Dec 15:20:31 15:22:30 13° 251° (WSW) 15:24:29 437.485
M-CUBED/EXP-1 PRIME 07 Dec 15:24:49 15:29:31 80° 106° (ESE) 15:33:59 437.505
ITUPSAT 1 07 Dec 15:34:10 15:38:57 80° 285° (WNW) 15:43:42 437.325
AO-7 07 Dec 15:37:37 15:45:53 70° 255° (WSW) 15:54:13 29.400- 29.500
ISS 07 Dec 15:51:39 15:54:43 38° 138° (SE) 15:57:49 145.825
BEESAT 2 07 Dec 15:53:00 15:55:03 14° 251° (WSW) 15:57:06 435.950
MOZHAYETS 4 07 Dec 15:57:39 16:02:03 47° 99° (E) 16:06:26
GOMX 1 07 Dec 16:07:38 16:08:50 11° 58° (ENE) 16:10:03 467.674
KKS-1 07 Dec 16:16:34 16:20:30 30° 96° (E) 16:24:25 437.445
STARS 07 Dec 16:19:13 16:21:39 14° 91° (E) 16:24:05 437.465
RS-15 07 Dec 16:24:38 16:37:06 74° 54° (NE) 16:49:06 29.354- 29.394
HORYU 2 07 Dec 16:28:49 16:32:48 32° 69° (ENE) 16:36:48 437.375
BRITE-PL 07 Dec 16:36:34 16:40:41 45° 71° (ENE) 16:45:08 437.365/2234.400
O/OREOS (USA 219) 07 Dec 16:36:51 16:41:21 59° 295° (WNW) 16:45:52 437.305
SWISSCUBE 07 Dec 16:40:37 16:43:38 17° 297° (WNW) 16:46:38 437.505
BEESAT 07 Dec 16:44:26 16:47:31 17° 297° (WNW) 16:50:34 436.000
AUBIESAT-1 07 Dec 16:46:29 16:49:48 20° 301° (WNW) 16:53:01 437.475
CUTE-I 07 Dec 16:47:23 16:51:00 19° 61° (ENE) 16:54:35 437.470
AIST 2 07 Dec 16:54:52 16:59:06 69° 56° (ENE) 17:03:18 435.215
M-CUBED/EXP-1 PRIME 07 Dec 17:01:06 17:03:16 13° 305° (NW) 17:05:25 437.505
NOAA 15 07 Dec 17:03:52 17:08:14 28° 65° (ENE) 17:12:37 137.62
NOAA 18 07 Dec 17:10:04 17:14:01 20° 61° (ENE) 17:18:00 137.9125
Cubesat XI-IV 07 Dec 17:12:38 17:17:15 30° 66° (ENE) 17:21:52 437.490
ISS 07 Dec 17:28:19 17:31:17 30° 335° (NNW) 17:34:15 145.825
MOZHAYETS 4 07 Dec 17:35:48 17:38:51 18° 295° (WNW) 17:41:54
AO-7 07 Dec 17:37:09 17:40:03 12° 273° (W) 17:42:58 29.400- 29.500
GOMX 1 07 Dec 17:41:25 17:46:00 90° 88° (E) 17:51:00 467.674
CUBESAT XI-V 07 Dec 17:41:35 17:46:16 85° 103° (ESE) 17:50:58 437.345
DOVE 4 07 Dec 17:43:25 17:47:57 41° 70° (ENE) 17:52:44 437.250
KKS-1 07 Dec 17:53:13 17:56:57 26° 293° (WNW) 18:00:40 437.445
STARS 07 Dec 17:54:00 17:58:19 51° 288° (WNW) 18:02:34 437.465
Cosmos 2491 07 Dec 17:56:17 18:04:46 52° 76° (ENE) 18:13:12 435.465 / 435.565
LilacSat-2 07 Dec 18:02:40 18:06:31 89° 259° (W) 18:10:22 437.200
HORYU 2 07 Dec 18:05:44 18:09:22 24° 265° (W) 18:13:00 437.375
HO-68 07 Dec 18:09:34 18:15:17 27° 59° (ENE) 18:21:01 435.675
BRITE-PL 07 Dec 18:16:50 18:19:32 16° 270° (W) 18:22:21 437.365/2234.400
YUBILEINY 07 Dec 18:23:51 18:31:13 32° 84° (E) 18:38:37 435.215
CUTE-I 07 Dec 18:25:12 18:30:31 62° 259° (WSW) 18:35:51 437.470
CUTE 1.7 + AOD 2 07 Dec 18:29:28 18:32:09 17° 65° (ENE) 18:34:49 437.475
Cosmos 2504 07 Dec 18:29:58 18:34:32 16° 75° (ENE) 18:39:12 435.465 / 435.565
AIST 2 07 Dec 18:35:35 18:37:00 11° 252° (WSW) 18:38:23 435.215
RS-15 07 Dec 18:38:13 18:48:34 34° 256° (WSW) 18:58:39 29.354- 29.394
NOAA 15 07 Dec 18:43:00 18:47:50 38° 262° (W) 18:52:42 137.62
STRAND 1 07 Dec 18:46:35 18:49:19 14° 90° (E) 18:52:01 437.568
CANX-2 07 Dec 18:46:44 18:50:22 29° 70° (ENE) 18:54:00 2200.000
NOAA 18 07 Dec 18:48:44 18:54:12 60° 258° (WSW) 18:59:43 137.9125
CINEMA 3 07 Dec 18:49:10 18:53:56 50° 72° (ENE) 18:58:48 145.822/145.860
Cubesat XI-IV 07 Dec 18:52:16 18:57:11 36° 263° (W) 19:02:09 437.490
CUBEBUG 2 07 Dec 18:57:34 19:00:32 17° 64° (ENE) 19:03:29 437.445
ISS 07 Dec 19:06:39 19:08:34 14° 355° (N) 19:10:29 145.825
SEEDS 07 Dec 19:08:30 19:12:06 29° 70° (ENE) 19:15:43 437.485
COMPASS 1 07 Dec 19:15:54 19:19:11 24° 68° (ENE) 19:22:30 437.405
CUBESAT XI-V 07 Dec 19:21:42 19:22:56 11° 300° (WNW) 19:24:11 437.345
DOVE 4 07 Dec 19:22:01 19:25:48 23° 268° (W) 19:29:45 437.250
AIST 1 07 Dec 19:31:49 19:35:39 32° 90° (E) 19:39:32
UWE-3 07 Dec 19:35:21 19:39:08 25° 68° (ENE) 19:42:53 435.000/436.395/437.385
CUSAT 1 07 Dec 19:39:50 19:42:37 18° 76° (ENE) 19:45:54 437.405
Cosmos 2491 07 Dec 19:53:42 20:01:13 34° 276° (W) 20:08:43 435.465 / 435.565
HO-68 07 Dec 19:55:23 20:02:28 64° 257° (WSW) 20:09:38 435.675
PCSat 07 Dec 19:58:58 20:03:57 35° 52° (NE) 20:08:54 145.827
CUTE 1.7 + AOD 2 07 Dec 20:03:38 20:07:38 43° 262° (W) 20:11:40 437.475
ZACube-1 07 Dec 20:11:57 20:16:06 36° 71° (ENE) 20:20:12 437.345
SO-50 07 Dec 20:17:13 20:21:59 86° 126° (SE) 20:26:43 436.795
Cosmos 2504 07 Dec 20:18:00 20:26:22 81° 95° (E) 20:35:15 435.465 / 435.565
AAUSAT CUBESAT 2 07 Dec 20:18:14 20:22:20 87° 259° (W) 20:26:28 437.432
FUNcube-1 07 Dec 20:18:32 20:22:44 39° 71° (ENE) 20:26:53 145.935
YUBILEINY 07 Dec 20:19:03 20:27:31 55° 283° (WNW) 20:36:07 435.215
CANX-2 07 Dec 20:22:49 20:26:12 23° 266° (W) 20:29:36 2200.000
STRAND 1 07 Dec 20:23:53 20:28:57 66° 287° (WNW) 20:33:59 437.568
CINEMA 3 07 Dec 20:27:49 20:31:19 19° 269° (W) 20:34:52 145.822/145.860
CUBEBUG 2 07 Dec 20:32:01 20:36:41 56° 260° (W) 20:41:21 437.445
ISS 07 Dec 20:43:37 20:46:02 18° 15° (NNE) 20:48:27 145.825
DANDE 07 Dec 20:44:03 20:45:56 15° 76° (ENE) 20:48:02 436.750
SEEDS 07 Dec 20:44:29 20:47:47 23° 266° (W) 20:51:06 437.485
Oscar 11 07 Dec 20:46:41 20:50:59 75° 76° (ENE) 20:55:18 145.826/435.025
COMPASS 1 07 Dec 20:51:04 20:54:37 28° 264° (W) 20:58:11 437.405
DELFI C3 07 Dec 21:01:18 21:04:53 36° 72° (ENE) 21:08:30 145.870
AIST 1 07 Dec 21:10:02 21:13:18 21° 288° (WNW) 21:16:37
UWE-3 07 Dec 21:11:13 21:15:25 33° 263° (W) 21:19:36 435.000/436.395/437.385
CUSAT 1 07 Dec 21:20:52 21:24:25 33° 263° (W) 21:28:55 437.405
PRISM 07 Dec 21:21:04 21:24:53 34° 98° (E) 21:28:40 437.425
HUMSAT D 07 Dec 21:23:51 21:27:41 35° 71° (ENE) 21:31:30 437.325/437.525
PCSat 07 Dec 21:42:26 21:47:18 34° 250° (WSW) 21:52:08 145.827
ZACube-1 07 Dec 21:48:57 21:52:26 22° 266° (W) 21:55:55 437.345
FUNcube-1 07 Dec 21:55:45 21:59:04 20° 267° (W) 22:02:22 145.935
SO-50 07 Dec 22:00:09 22:03:05 16° 321° (NW) 22:05:59 436.795
Cosmos 2504 07 Dec 22:14:27 22:20:51 23° 297° (WNW) 22:27:28 435.465 / 435.565
ISS 07 Dec 22:19:41 22:22:59 72° 33° (NNE) 22:26:17 145.825
YUBILEINY 07 Dec 22:25:48 22:26:41 10° 307° (NW) 22:27:34 435.215
DANDE 07 Dec 22:26:20 22:28:30 18° 264° (W) 22:30:59 436.750
UNISAT 6 07 Dec 22:27:42 22:31:52 42° 98° (E) 22:35:57 437.425
DELFI C3 07 Dec 22:37:20 22:39:49 16° 267° (W) 22:42:19 145.870
PRISM 07 Dec 22:56:52 22:59:57 20° 294° (WNW) 23:03:02 437.425
TIGRISAT 07 Dec 22:56:57 23:01:21 84° 103° (ESE) 23:05:38 435.000
ANTELSAT 07 Dec 22:58:56 23:03:20 87° 284° (WNW) 23:07:38 437.575/2403.000
HUMSAT D 07 Dec 23:00:24 23:03:23 19° 267° (W) 23:06:22 437.325/437.525
QB50P1 07 Dec 23:03:54 23:04:19 10° 89° (E) 23:04:45 145.935-145.965
AISAT 07 Dec 23:06:26 23:10:19 31° 69° (ENE) 23:14:14 437.250
GONETS M04 07 Dec 23:07:04 23:09:56 12° 73° (ENE) 23:12:47
ESTCUBE 1 07 Dec 23:07:33 23:11:58 73° 76° (ENE) 23:16:27 437.505/2401.250
50 SAT 07 Dec 23:14:27 23:17:18 24° 70° (ENE) 23:20:10 437.505
Cosmos 2499 07 Dec 23:16:04 23:21:11 17° 76° (ENE) 23:26:21 435.465 / 435.565
POPSAT HIP 1 07 Dec 23:23:25 23:26:18 18° 93° (E) 23:29:09 437.405
CUBEBUG 1 07 Dec 23:26:44 23:31:03 71° 75° (ENE) 23:35:27 437.445
PHONESAT 2.4 07 Dec 23:27:27 23:28:57 14° 152° (SSE) 23:30:28 2401.200-2431.200
JAS-2 07 Dec 23:32:09 23:36:59 37° 98° (E) 23:42:04 435.910
VELOX 1 07 Dec 23:42:35 23:46:59 72° 74° (ENE) 23:51:24 145.980
DX 1 07 Dec 23:49:33 23:53:41 45° 72° (ENE) 23:57:53 434.975-435.025
BUGSAT 1 07 Dec 23:52:25 23:53:53 12° 90° (E) 23:55:20 437.445
UKube-1 07 Dec 23:52:58 23:56:54 36° 70° (ENE) 00:00:54 .
ISS 07 Dec 23:57:26 23:59:05 13° 230° (SW) 00:00:44 145.825
SPROUT 08 Dec 00:01:03 00:05:20 74° 75° (ENE) 00:09:40 437.525
UNISAT 6 08 Dec 00:05:17 00:08:15 18° 295° (WNW) 00:11:10 437.425
NANOSAT C BR1 08 Dec 00:15:36 00:19:49 66° 101° (E) 00:23:59 145.865
QB50P2 08 Dec 00:23:25 00:27:41 87° 280° (W) 00:31:54 145.880/145.840
POLYITAN 1 08 Dec 00:23:54 00:28:09 89° 90° (E) 00:32:22 437.675
QB50P1 08 Dec 00:36:19 00:40:32 67° 285° (WNW) 00:44:42 145.935-145.965
DUCHIFAT 1 08 Dec 00:36:46 00:40:59 78° 284° (WNW) 00:45:10 145.980
M-CUBED/EXP-1 PRIME 08 Dec 00:39:33 00:40:56 11° 54° (NE) 00:42:20 437.505
AISAT 08 Dec 00:43:09 00:46:46 24° 265° (W) 00:50:25 437.250
50 SAT 08 Dec 00:47:59 00:50:34 19° 266° (W) 00:53:09 437.505
ESTCUBE 1 08 Dec 00:48:36 00:49:17 10° 271° (W) 00:49:57 437.505/2401.250
GONETS M04 08 Dec 00:56:23 01:05:00 70° 93° (E) 01:13:38
POPSAT HIP 1 08 Dec 00:58:16 01:02:13 38° 289° (WNW) 01:06:08 437.405
PHONESAT 2.4 08 Dec 01:01:13 01:03:48 49° 168° (SSE) 01:06:23 2401.200-2431.200
Oscar 19 08 Dec 01:01:40 01:05:13 18° 92° (E) 01:08:46 437.125/150
Cosmos 2499 08 Dec 01:04:17 01:12:53 85° 96° (E) 01:21:50 435.465 / 435.565
ITUPSAT 1 08 Dec 01:05:46 01:08:15 14° 61° (ENE) 01:10:45 437.325
CUBEBUG 1 08 Dec 01:07:20 01:07:49 10° 271° (W) 01:08:19 437.445
O/OREOS (USA 219) 08 Dec 01:07:58 01:11:46 27° 59° (ENE) 01:15:33 437.305
Gurwin Techsat 1B 08 Dec 01:15:15 01:17:19 12° 89° (E) 01:19:22 435.225
TISAT 1 08 Dec 01:15:42 01:19:57 82° 76° (ENE) 01:24:13 437.305
JAS-2 08 Dec 01:17:42 01:21:58 26° 294° (WNW) 01:26:24 435.910
VELOX 1 08 Dec 01:23:14 01:23:55 10° 271° (W) 01:24:36 145.980
BUGSAT 1 08 Dec 01:25:30 01:29:38 57° 286° (WNW) 01:33:40 437.445
DX 1 08 Dec 01:27:24 01:30:06 16° 268° (W) 01:32:50 434.975-435.025
UKube-1 08 Dec 01:29:55 01:33:03 20° 266° (W) 01:36:13 .
NANOSAT C BR1 08 Dec 01:53:27 01:54:59 12° 298° (WNW) 01:56:29 145.865
AUBIESAT-1 08 Dec 01:56:29 02:00:34 55° 68° (ENE) 02:04:57 437.475
AO-85 08 Dec 02:00:24 02:05:20 74° 121° (ESE) 02:09:55 145.980
SWISSCUBE 08 Dec 02:07:52 02:12:35 64° 73° (ENE) 02:17:19 437.505
M-CUBED/EXP-1 PRIME 08 Dec 02:10:28 02:14:37 85° 252° (WSW) 02:19:06 437.505
BEESAT 08 Dec 02:11:41 02:16:24 63° 73° (ENE) 02:21:07 436.000
PHONESAT 2.4 08 Dec 02:36:17 02:38:56 72° 183° (S) 02:41:34 2401.200-2431.200
Oscar 19 08 Dec 02:39:48 02:44:52 54° 288° (WNW) 02:49:55 437.125/150
ITUPSAT 1 08 Dec 02:40:45 02:45:31 68° 258° (WSW) 02:50:17 437.325
O/OREOS (USA 219) 08 Dec 02:47:15 02:51:08 30° 256° (WSW) 02:55:00 437.305
Gurwin Techsat 1B 08 Dec 02:52:32 02:57:52 81° 286° (WNW) 03:03:11 435.225
GONETS M04 08 Dec 02:55:38 03:02:34 26° 294° (WNW) 03:09:34
MOZHAYETS 4 08 Dec 02:59:21 03:03:43 45° 72° (ENE) 03:08:04
Cosmos 2499 08 Dec 03:00:47 03:07:09 22° 297° (WNW) 03:13:42 435.465 / 435.565
SO-50 08 Dec 03:09:55 03:11:59 13° 36° (NE) 03:14:01 436.795
ITAMSAT 1 08 Dec 03:12:55 03:17:40 35° 97° (E) 03:22:22 435.822/435.867
KKS-1 08 Dec 03:14:38 03:18:26 28° 68° (ENE) 03:22:17 437.445
STARS 08 Dec 03:16:19 03:18:41 14° 62° (ENE) 03:21:04 437.465
AUBIESAT-1 08 Dec 03:33:09 03:35:22 14° 265° (W) 03:37:39 437.475
AO-7 08 Dec 03:39:17 03:47:04 41° 99° (E) 03:54:47 29.400- 29.500
AO-85 08 Dec 03:43:03 03:46:12 17° 317° (NW) 03:49:12 145.980
SWISSCUBE 08 Dec 03:48:30 03:50:48 13° 270° (W) 03:53:04 437.505
BEESAT 08 Dec 03:52:12 03:54:35 14° 269° (W) 03:56:57 436.000
PHONESAT 2.4 08 Dec 04:11:36 04:13:57 29° 200° (SSW) 04:16:19 2401.200-2431.200
YUBILEINY 08 Dec 04:34:11 04:39:07 16° 59° (ENE) 04:44:02 435.215
Gurwin Techsat 1B 08 Dec 04:35:18 04:36:57 11° 303° (WNW) 04:38:35 435.225
MOZHAYETS 4 08 Dec 04:37:59 04:41:04 18° 268° (W) 04:44:11
BRITE-PL 08 Dec 04:40:59 04:44:52 19° 91° (E) 04:48:49 437.365/2234.400
CUBESAT XI-V 08 Dec 04:44:38 04:49:13 82° 74° (ENE) 04:53:51 437.345
SO-50 08 Dec 04:48:42 04:53:14 76° 56° (NE) 04:57:41 436.795
STARS 08 Dec 04:50:10 04:54:31 59° 259° (W) 04:58:56 437.465
KKS-1 08 Dec 04:51:08 04:54:56 27° 264° (W) 04:58:47 437.445
ITAMSAT 1 08 Dec 04:52:36 04:56:59 29° 294° (WNW) 05:01:22 435.822/435.867
BEESAT 3 08 Dec 05:08:33 05:12:27 86° 299° (WNW) 05:16:25 437.485
AO-7 08 Dec 05:31:59 05:39:52 48° 298° (WNW) 05:47:44 29.400- 29.500
Cubesat XI-IV 08 Dec 05:32:21 05:33:24 11° 88° (E) 05:34:26 437.490
BEESAT 2 08 Dec 05:42:30 05:46:26 82° 303° (WNW) 05:50:26 435.950
GOMX 1 08 Dec 05:43:00 05:47:51 31° 95° (E) 05:52:39 467.674
DOVE 4 08 Dec 05:44:05 05:46:23 13° 87° (E) 05:48:39 437.250
HORYU 2 08 Dec 05:55:24 05:59:49 62° 101° (E) 06:04:10 437.375
STRAND 1 08 Dec 06:02:06 06:06:01 23° 64° (ENE) 06:09:56 437.568
Cosmos 2504 08 Dec 06:11:28 06:19:05 32° 68° (ENE) 06:26:17 435.465 / 435.565
BRITE-PL 08 Dec 06:18:13 06:23:37 60° 286° (WNW) 06:29:12 437.365/2234.400
YUBILEINY 08 Dec 06:28:42 06:37:34 76° 81° (E) 06:46:25 435.215
SO-50 08 Dec 06:31:39 06:33:02 11° 253° (WSW) 06:34:24 436.795
CUTE-I 08 Dec 06:42:09 06:47:22 52° 100° (E) 06:52:32 437.470
CINEMA 3 08 Dec 06:46:27 06:48:04 12° 87° (E) 06:49:41 145.822/145.860
BEESAT 3 08 Dec 06:49:26 06:50:43 11° 321° (NW) 06:51:59 437.485
